Location: Unspecified
(41.5000°N, 0.0000°E)
Time: 01:51:07
(UTC+00:00)

deb Explorer IX - Pass Details

Date: 28 June 2019
Orbit: 544 x 1107 km, 38.8° (Epoch: 14 October)

Event Time Altitude Azimuth Distance (km) Brightness Sun altitude
Rises 09:16:38 0° 192° (SSW) 3,307 ? 50.9°
Reaches altitude 10° 09:20:16 10° 168° (SSE) 2,508 ? 51.6°
Maximum altitude 09:23:16 14° 138° (SE) 2,322 ? 52.1°
Drops below altitude 10° 09:26:28 10° 108° (ESE) 2,709 ? 52.7°
Sets 09:30:40 0° 86° (E) 3,770 ? 53.4°
